Cleared energy and offer stacks

From www.emi.ea.govt.nz provided by the Electricity Authority (New Zealand)
Run at: 20240514222952

Parameters
Date,29 Apr 2024
Region type,New Zealand
Region,New Zealand
Band 1 max,50
Band 2 max,80
Band 3 max,130
Band 4 max,300
Band 5 max,1000

Period start,Period end,Trading period,Region ID,Region,Series,Energy (MW)
29/04/2024 00:00:00,29/04/2024 00:30:00,1,NZ,New Zealand,Cleared energy,3771.815
29/04/2024 00:30:00,29/04/2024 01:00:00,2,NZ,New Zealand,Cleared energy,3670.478
29/04/2024 01:00:00,29/04/2024 01:30:00,3,NZ,New Zealand,Cleared energy,3599.485
29/04/2024 01:30:00,29/04/2024 02:00:00,4,NZ,New Zealand,Cleared energy,3551.486
29/04/2024 02:00:00,29/04/2024 02:30:00,5,NZ,New Zealand,Cleared energy,3516.088
29/04/2024 02:30:00,29/04/2024 03:00:00,6,NZ,New Zealand,Cleared energy,3492.771
29/04/2024 03:00:00,29/04/2024 03:30:00,7,NZ,New Zealand,Cleared energy,3478.163
29/04/2024 03:30:00,29/04/2024 04:00:00,8,NZ,New Zealand,Cleared energy,3458.713
29/04/2024 04:00:00,29/04/2024 04:30:00,9,NZ,New Zealand,Cleared energy,3520.429
29/04/2024 04:30:00,29/04/2024 05:00:00,10,NZ,New Zealand,Cleared energy,3632.380
29/04/2024 05:00:00,29/04/2024 05:30:00,11,NZ,New Zealand,Cleared energy,3876.958
29/04/2024 05:30:00,29/04/2024 06:00:00,12,NZ,New Zealand,Cleared energy,4167.111
29/04/2024 06:00:00,29/04/2024 06:30:00,13,NZ,New Zealand,Cleared energy,4679.951
29/04/2024 06:30:00,29/04/2024 07:00:00,14,NZ,New Zealand,Cleared energy,5216.746
29/04/2024 07:00:00,29/04/2024 07:30:00,15,NZ,New Zealand,Cleared energy,5731.531
29/04/2024 07:30:00,29/04/2024 08:00:00,16,NZ,New Zealand,Cleared energy,5990.599
29/04/2024 08:00:00,29/04/2024 08:30:00,17,NZ,New Zealand,Cleared energy,5884.053
29/04/2024 08:30:00,29/04/2024 09:00:00,18,NZ,New Zealand,Cleared energy,5725.786
29/04/2024 09:00:00,29/04/2024 09:30:00,19,NZ,New Zealand,Cleared energy,5602.189
29/04/2024 09:30:00,29/04/2024 10:00:00,20,NZ,New Zealand,Cleared energy,5483.523
29/04/2024 10:00:00,29/04/2024 10:30:00,21,NZ,New Zealand,Cleared energy,5324.665
29/04/2024 10:30:00,29/04/2024 11:00:00,22,NZ,New Zealand,Cleared energy,5236.809
29/04/2024 11:00:00,29/04/2024 11:30:00,23,NZ,New Zealand,Cleared energy,5143.739
29/04/2024 11:30:00,29/04/2024 12:00:00,24,NZ,New Zealand,Cleared energy,5090.381
29/04/2024 12:00:00,29/04/2024 12:30:00,25,NZ,New Zealand,Cleared energy,5056.288
29/04/2024 12:30:00,29/04/2024 13:00:00,26,NZ,New Zealand,Cleared energy,5010.734
29/04/2024 13:00:00,29/04/2024 13:30:00,27,NZ,New Zealand,Cleared energy,4975.541
29/04/2024 13:30:00,29/04/2024 14:00:00,28,NZ,New Zealand,Cleared energy,4934.036
29/04/2024 13:30:00,29/04/2024 14:00:00,28,NZ,New Zealand,1000+ $/MWh,711.000
29/04/2024 13:30:00,29/04/2024 14:00:00,28,NZ,New Zealand,300-1000 $/MWh,463.004
29/04/2024 13:30:00,29/04/2024 14:00:00,28,NZ,New Zealand,130-300 $/MWh,874.600
29/04/2024 13:30:00,29/04/2024 14:00:00,28,NZ,New Zealand,80-130 $/MWh,7.000
29/04/2024 13:30:00,29/04/2024 14:00:00,28,NZ,New Zealand,0-50 $/MWh,5630.610
29/04/2024 14:00:00,29/04/2024 14:30:00,29,NZ,New Zealand,Cleared energy,4904.508
29/04/2024 14:30:00,29/04/2024 15:00:00,30,NZ,New Zealand,Cleared energy,4886.758
29/04/2024 15:00:00,29/04/2024 15:30:00,31,NZ,New Zealand,Cleared energy,4965.464
29/04/2024 15:30:00,29/04/2024 16:00:00,32,NZ,New Zealand,Cleared energy,5072.148
29/04/2024 16:00:00,29/04/2024 16:30:00,33,NZ,New Zealand,Cleared energy,5157.985
29/04/2024 16:30:00,29/04/2024 17:00:00,34,NZ,New Zealand,Cleared energy,5317.158
29/04/2024 17:00:00,29/04/2024 17:30:00,35,NZ,New Zealand,Cleared energy,5553.132
29/04/2024 17:30:00,29/04/2024 18:00:00,36,NZ,New Zealand,Cleared energy,5897.240
29/04/2024 18:00:00,29/04/2024 18:30:00,37,NZ,New Zealand,Cleared energy,6035.554
29/04/2024 18:30:00,29/04/2024 19:00:00,38,NZ,New Zealand,Cleared energy,5933.464
29/04/2024 19:00:00,29/04/2024 19:30:00,39,NZ,New Zealand,Cleared energy,5771.664
29/04/2024 19:30:00,29/04/2024 20:00:00,40,NZ,New Zealand,Cleared energy,5612.792
29/04/2024 20:00:00,29/04/2024 20:30:00,41,NZ,New Zealand,Cleared energy,5469.535
29/04/2024 20:30:00,29/04/2024 21:00:00,42,NZ,New Zealand,Cleared energy,5294.805
29/04/2024 21:00:00,29/04/2024 21:30:00,43,NZ,New Zealand,Cleared energy,5150.782
29/04/2024 21:30:00,29/04/2024 22:00:00,44,NZ,New Zealand,Cleared energy,4955.816
29/04/2024 22:00:00,29/04/2024 22:30:00,45,NZ,New Zealand,Cleared energy,4721.015
29/04/2024 22:30:00,29/04/2024 23:00:00,46,NZ,New Zealand,Cleared energy,4443.385
29/04/2024 23:00:00,29/04/2024 23:30:00,47,NZ,New Zealand,Cleared energy,4323.069
29/04/2024 23:30:00,30/04/2024 00:00:00,48,NZ,New Zealand,Cleared energy,4149.916
